Terminal Aerodrome Forecast
Issued by NWS Newport/Morehead City, NC

Home | Current Version | Previous Version | Graphics & Text | Print | Product List | Glossary On
Versions: 1 2 3 4 5 6 7 8 9 10 11 12 13 14 15 16 17 18 19
433
FTUS42 KMHX 161133
TAFEWN
TAF
KEWN 161133Z 1612/1712 00000KT 6SM BR OVC002
     FM161400 VRB04KT P6SM BKN015
     FM161600 01005KT P6SM VCSH BKN040
     FM170000 VRB03KT P6SM SCT200
     FM170800 00000KT 3SM BR SCT003=

USA.gov is the U.S. government's official web portal to all federal, state and local government web resources and services.